Orbital Elements at Epoch 2459200.5 (2020-Dec-17.0) TDB
Reference: JPL 21 (heliocentric ecliptic J2000)
Element | Value | Uncertainty (1-sigma) | Units |
e | .1256894189082864 | 3.8335e-08 | |
a | 3.07327961170989 | 2.0867e-08 | au |
q | 2.68700088317139 | 1.2382e-07 | au |
i | 1.936051946663678 | 3.8843e-06 | deg |
node | 109.8229474245561 | 0.00013817 | deg |
peri | 207.2894152517033 | 0.00013926 | deg |
M | 280.8427429136835 | 1.965e-05 | deg |
tp | 2459633.202869453136 (2022-Feb-22.70286945) | 0.00010949 | TDB |
period | 1967.893263826302 5.39 | 2.0042e-05 5.487e-08 | d yr |
n | .182936751000422 | 1.8632e-09 | deg/d |
Q | 3.45955834024839 | 2.349e-08 | au |
|
| | Orbit Determination Parameters
Additional Information
|